Regional Weather Roundup
Issued by NWS Goodland, KS

Home | Current Version | Previous Version | Text Only | Print | Product List | Glossary Off
Versions: 1 2 3 4 5 6 7 8 9 10 11 12 13 14 15 16 17 18 19 20 21 22 23 24 25 26 27 28 29 30 31 32 33 34 35 36 37 38 39 40 41 42 43 44 45 46 47 48 49 50

000
ASUS43 KGLD 280008
RWRGLD

GOODLAND FORECAST AREA HOURLY WEATHER ROUNDUP
NATIONAL WEATHER SERVICE GOODLAND KS
600 PM MDT SUN MAY 27 2018

...OFFICIAL OBSERVATIONS...

CITY           SKY/WX    TMP DP  RH WIND       PRES   REMARKS
GOODLAND KS    CLOUDY    80  47  31 S33G48    29.76S
HILL CITY KS   MOSUNNY   87  58  37 SE16G28   29.79S
IMPERIAL NEB   CLOUDY    80  59  48 E15       29.73F THUNDER
MCCOOK NEB     CLOUDY    88  56  33 SE17G29   29.75S
AKRON CO       PTSUNNY   70  54  56 SE12      29.82R
BURLINGTON CO  CLOUDY    78  49  35 SE21G33   29.79R THUNDER
LIMON CO       MOSUNNY   80  44  27 E18G25    29.81F
$$

...UNOFFICIAL OBSERVATIONS...

CITY           SKY/WX    TMP DP  RH WIND       PRES   REMARKS
COLBY KS       RAIN      70  63  78 S16G25    29.84R
NORTON KS      SUNNY     90  54  29 SE16      29.78
SHARON SPRINGS   N/A     81  58  45 MISG        N/A
KIT CARSON CO    N/A     85  48  27 MISG        N/A
YUMA CO        TSTM      70  30  23 S17G38    29.83F
$$




USA.gov is the U.S. government's official web portal to all federal, state and local government web resources and services.